Weather in Kulagino

Russia / Nizhny Novgorod Oblast'     56°45′04″N   44°15′44″E
temp.,
°C
wind,
m/s
gust,
m/s
humid.,
%
clouds,
%
prec.,
mm/h
press.,
hPa
HPBL,
m
6 may, thu
thu600:00+4s1182100 0.0 101029
03:00+5sse2489100 0.1 1011122
06:00+7s149758 0.0 1011159
09:00+11s358159 0.0 1011491
12:00+17ssw6957100 0.0 10101399
15:00+17ssw61259100 0.5 10101666
18:00+15ssw51361100 0.0 10091473
21:00+13ssw61466100 0.1 10101282
7 may, fri
fri700:00+12ssw5137296 0.0 10091011
03:00+11ssw51176100 0.0 1009818
06:00+9sw3895100 2.1 1010579
09:00+10sw4679100 3.6 1012992
12:00+13wsw5756100 0.3 10131653
15:00+15wsw583544 0.3 10132724
18:00+13wsw244964 0.0 1014213
21:00+8sw226648 0.0 101618
8 may, sat
sat800:00+6s2370100 0.0 101749
03:00+5sse227848 0.0 101736
06:00+7se267499 0.0 1017154
09:00+14sse595110 0.0 10151364
12:00+16sse6840100 0.0 10131735
15:00+17s61047100 0.0 10111815
18:00+13sse41273100 0.4 1009918
21:00+13sse51382100 0.4 10071015
9 may, sun
sun900:00+14sse61476100 0.0 10051050
03:00+13sse81590100 1.1 10041169
06:00+7wsw2793100 1.3 1009456
09:00+7sw3793100 3.1 1010566
12:00+8ssw3586100 0.4 1012542
15:00+10w4466100 0.6 10131097
18:00+7nw3686100 1.2 1016706
21:00+6wnw2691100 1.7 1018311
10 may, mon
mon1000:00+5nnw3991100 0.0 1020425
03:00+4n41191100 0.0 1021470
06:00+4n41186100 0.0 1024538
09:00+8nne586198 0.0 1025824
12:00+13nne464128 0.0 10251211
15:00+14nne45363 0.0 10251375
18:00+13ne3649100 0.0 1026376
21:00+7ne227444 0.0 102811